Time,TemperatureF,DewpointF,PressureIn,WindDirection,WindDirectionDegrees,WindSpeedMPH,WindSpeedGustMPH,Humidity,HourlyPrecipIn,Conditions,Clouds,dailyrainin,SoftwareType,DateUTC
2013-02-26 00:01:00,31.0,27.0,-100.00,WSW,258,1.0,1.0,85,0.00,,,-99.99,,2013-02-26 05:01:00,
2013-02-26 00:12:00,31.0,27.0,-100.00,NNE,21,1.0,1.0,87,0.00,,,-99.99,,2013-02-26 05:12:00,
2013-02-26 00:22:00,31.0,27.0,-100.00,NNE,21,1.0,1.0,87,0.00,,,-99.99,,2013-02-26 05:22:00,
2013-02-26 00:32:00,31.0,27.0,-100.00,NE,52,0.0,0.0,87,0.00,,,-99.99,,2013-02-26 05:32:00,
2013-02-26 00:43:00,31.0,27.0,-100.00,NE,52,0.0,0.0,87,0.00,,,-99.99,,2013-02-26 05:43:00,
2013-02-26 00:52:00,31.0,27.0,-100.00,NNE,27,0.0,1.0,86,0.00,,,-99.99,,2013-02-26 05:52:00,
2013-02-26 01:02:00,31.0,27.0,-100.00,NNE,27,0.0,1.0,86,0.00,,,-99.99,,2013-02-26 06:02:00,
2013-02-26 01:11:00,32.0,27.0,-100.00,ENE,62,1.0,3.0,79,0.00,,,-99.99,,2013-02-26 06:11:00,
2013-02-26 01:22:00,32.0,27.0,-100.00,ENE,62,1.0,3.0,79,0.00,,,-99.99,,2013-02-26 06:22:00,
2013-02-26 01:32:00,32.0,27.0,-100.00,ESE,110,2.0,5.0,81,0.00,,,-99.99,,2013-02-26 06:32:00,
2013-02-26 01:42:00,33.0,27.0,-100.00,ESE,113,3.0,5.0,79,0.00,,,-99.99,,2013-02-26 06:42:00,
2013-02-26 01:52:00,33.0,27.0,-100.00,ESE,113,3.0,5.0,79,0.00,,,-99.99,,2013-02-26 06:52:00,
2013-02-26 02:00:00,32.0,26.0,-100.00,ESE,110,2.0,3.0,79,0.00,,,-99.99,,2013-02-26 07:00:00,
2013-02-26 02:01:00,32.0,26.0,-100.00,West,281,0.0,0.0,78,0.00,,,-99.99,,2013-02-26 07:01:00,
2013-02-26 02:11:00,32.0,26.0,-100.00,West,281,0.0,0.0,78,0.00,,,-99.99,,2013-02-26 07:11:00,
2013-02-26 02:22:00,32.0,26.0,-100.00,West,281,0.0,0.0,78,0.00,,,-99.99,,2013-02-26 07:22:00,
2013-02-26 02:32:00,32.0,26.0,-100.00,ESE,110,2.0,3.0,79,0.00,,,-99.99,,2013-02-26 07:32:00,
2013-02-26 02:42:00,32.0,26.0,-100.00,ESE,110,2.0,3.0,79,0.00,,,-99.99,,2013-02-26 07:42:00,
2013-02-26 02:52:00,32.0,26.0,-100.00,ESE,110,2.0,3.0,79,0.00,,,-99.99,,2013-02-26 07:52:00,
2013-02-26 03:11:00,33.0,26.0,-100.00,ESE,123,1.0,2.0,77,0.00,,,-99.99,,2013-02-26 08:11:00,
2013-02-26 03:21:00,33.0,26.0,-100.00,ESE,123,1.0,2.0,77,0.00,,,-99.99,,2013-02-26 08:21:00,
2013-02-26 03:32:00,33.0,27.0,-100.00,ESE,113,1.0,2.0,77,0.00,,,-99.99,,2013-02-26 08:32:00,
2013-02-26 03:40:00,34.0,26.0,-100.00,ESE,116,2.0,4.0,74,0.00,,,-99.99,,2013-02-26 08:40:00,
2013-02-26 03:42:00,33.0,27.0,-100.00,ESE,113,1.0,2.0,77,0.00,,,-99.99,,2013-02-26 08:42:00,
2013-02-26 03:52:00,34.0,26.0,-100.00,ESE,106,3.0,5.0,75,0.00,,,-99.99,,2013-02-26 08:52:00,
2013-02-26 04:02:00,34.0,26.0,-100.00,ESE,106,3.0,5.0,75,0.00,,,-99.99,,2013-02-26 09:02:00,
2013-02-26 04:11:00,34.0,26.0,-100.00,ESE,116,2.0,4.0,74,0.00,,,-99.99,,2013-02-26 09:11:00,
2013-02-26 04:21:00,34.0,26.0,-100.00,ESE,116,2.0,4.0,74,0.00,,,-99.99,,2013-02-26 09:21:00,
2013-02-26 04:32:00,34.0,26.0,-100.00,ESE,116,2.0,4.0,74,0.00,,,-99.99,,2013-02-26 09:32:00,
2013-02-26 04:52:00,35.0,27.0,-100.00,ESE,120,2.0,4.0,74,0.00,,,-99.99,,2013-02-26 09:52:00,
2013-02-26 05:01:00,35.0,27.0,-100.00,SE,128,2.0,4.0,72,0.00,,,-99.99,,2013-02-26 10:01:00,
2013-02-26 05:11:00,35.0,27.0,-100.00,SE,128,2.0,4.0,72,0.00,,,-99.99,,2013-02-26 10:11:00,
2013-02-26 05:21:00,35.0,27.0,-100.00,ESE,114,4.0,6.0,72,0.00,,,-99.99,,2013-02-26 10:21:00,
2013-02-26 05:32:00,35.0,27.0,-100.00,ESE,114,4.0,6.0,72,0.00,,,-99.99,,2013-02-26 10:32:00,
2013-02-26 05:42:00,35.0,27.0,-100.00,ESE,114,4.0,6.0,72,0.00,,,-99.99,,2013-02-26 10:42:00,
2013-02-26 05:52:00,35.0,28.0,-100.00,SE,126,3.0,4.0,74,0.00,,,-99.99,,2013-02-26 10:52:00,
2013-02-26 06:01:00,36.0,28.0,-100.00,SE,126,3.0,4.0,74,0.00,,,-99.99,,2013-02-26 11:01:00,
2013-02-26 06:12:00,36.0,28.0,-100.00,SE,126,3.0,4.0,74,0.00,,,-99.99,,2013-02-26 11:12:00,
2013-02-26 06:22:00,36.0,28.0,-100.00,ESE,109,4.0,6.0,73,0.00,,,-99.99,,2013-02-26 11:22:00,
2013-02-26 06:32:00,36.0,28.0,-100.00,ESE,109,4.0,6.0,73,0.00,,,-99.99,,2013-02-26 11:32:00,
2013-02-26 06:42:00,36.0,28.0,-100.00,ESE,109,4.0,6.0,73,0.00,,,-99.99,,2013-02-26 11:42:00,
2013-02-26 06:53:00,36.0,28.0,-100.00,ESE,117,3.0,5.0,74,0.00,,,-99.99,,2013-02-26 11:53:00,
2013-02-26 07:02:00,36.0,28.0,-100.00,ESE,117,3.0,5.0,74,0.00,,,-99.99,,2013-02-26 12:02:00,
2013-02-26 07:11:00,35.0,28.0,-100.00,ESE,107,4.0,6.0,73,0.00,,,-99.99,,2013-02-26 12:11:00,
2013-02-26 07:22:00,35.0,28.0,-100.00,ESE,107,4.0,6.0,73,0.00,,,-99.99,,2013-02-26 12:22:00,
2013-02-26 07:32:00,36.0,28.0,-100.00,ESE,109,4.0,7.0,74,0.00,,,-99.99,,2013-02-26 12:32:00,
2013-02-26 07:42:00,36.0,28.0,-100.00,ESE,109,4.0,7.0,74,0.00,,,-99.99,,2013-02-26 12:42:00,
2013-02-26 07:53:00,36.0,29.0,-100.00,ESE,110,4.0,6.0,75,0.00,,,-99.99,,2013-02-26 12:53:00,
2013-02-26 08:02:00,36.0,29.0,-100.00,ESE,104,4.0,6.0,74,0.00,,,-99.99,,2013-02-26 13:02:00,
2013-02-26 08:11:00,36.0,29.0,-100.00,ESE,104,4.0,6.0,74,0.00,,,-99.99,,2013-02-26 13:11:00,
2013-02-26 08:22:00,36.0,29.0,-100.00,ESE,104,4.0,6.0,74,0.00,,,-99.99,,2013-02-26 13:22:00,
2013-02-26 08:32:00,36.0,30.0,-100.00,ESE,113,3.0,6.0,79,0.00,,,-99.99,,2013-02-26 13:32:00,
2013-02-26 08:42:00,36.0,30.0,-100.00,ESE,113,3.0,6.0,79,0.00,,,-99.99,,2013-02-26 13:42:00,
2013-02-26 08:52:00,36.0,32.0,-100.00,ESE,119,3.0,4.0,86,0.11,,,-99.99,,2013-02-26 13:52:00,
2013-02-26 09:01:00,36.0,32.0,-100.00,ESE,119,3.0,4.0,86,0.11,,,-99.99,,2013-02-26 14:01:00,
2013-02-26 09:11:00,36.0,33.0,-100.00,ESE,110,5.0,7.0,89,0.04,,,-99.99,,2013-02-26 14:11:00,
2013-02-26 09:22:00,36.0,33.0,-100.00,ESE,110,5.0,7.0,89,0.04,,,-99.99,,2013-02-26 14:22:00,
2013-02-26 09:32:00,36.0,34.0,-100.00,ESE,112,5.0,9.0,91,0.03,,,-99.99,,2013-02-26 14:32:00,
2013-02-26 09:42:00,36.0,34.0,-100.00,ESE,121,4.0,5.0,92,0.14,,,-99.99,,2013-02-26 14:42:00,
2013-02-26 09:52:00,36.0,34.0,-100.00,ESE,121,4.0,5.0,92,0.14,,,-99.99,,2013-02-26 14:52:00,
2013-02-26 10:02:00,36.0,35.0,-100.00,ESE,117,4.0,6.0,94,0.10,,,-99.99,,2013-02-26 15:02:00,
2013-02-26 10:11:00,36.0,35.0,-100.00,ESE,117,4.0,6.0,94,0.10,,,-99.99,,2013-02-26 15:11:00,
2013-02-26 10:22:00,37.0,36.0,-100.00,SE,133,3.0,7.0,95,0.31,,,-99.99,,2013-02-26 15:22:00,
2013-02-26 10:32:00,37.0,36.0,-100.00,SE,133,3.0,7.0,95,0.31,,,-99.99,,2013-02-26 15:32:00,
2013-02-26 10:42:00,37.0,36.0,-100.00,SE,133,3.0,7.0,95,0.31,,,-99.99,,2013-02-26 15:42:00,
2013-02-26 10:52:00,38.0,36.0,-100.00,ESE,117,4.0,6.0,96,0.30,,,-99.99,,2013-02-26 15:52:00,
2013-02-26 11:02:00,38.0,36.0,-100.00,ESE,117,4.0,6.0,96,0.30,,,-99.99,,2013-02-26 16:02:00,
2013-02-26 11:11:00,38.0,37.0,-100.00,ESE,120,5.0,7.0,96,0.07,,,-99.99,,2013-02-26 16:11:00,
2013-02-26 11:22:00,38.0,37.0,-100.00,ESE,120,5.0,7.0,96,0.07,,,-99.99,,2013-02-26 16:22:00,
2013-02-26 11:32:00,38.0,37.0,-100.00,ESE,120,4.0,7.0,97,0.14,,,-99.99,,2013-02-26 16:32:00,
2013-02-26 11:42:00,38.0,37.0,-100.00,ESE,120,4.0,7.0,97,0.14,,,-99.99,,2013-02-26 16:42:00,
2013-02-26 11:52:00,39.0,38.0,-100.00,ESE,119,5.0,7.0,97,0.07,,,-99.99,,2013-02-26 16:52:00,
2013-02-26 12:01:00,39.0,38.0,-100.00,ESE,119,5.0,7.0,97,0.07,,,-99.99,,2013-02-26 17:01:00,
2013-02-26 12:11:00,39.0,38.0,-100.00,ESE,119,4.0,6.0,97,0.00,,,-99.99,,2013-02-26 17:11:00,
2013-02-26 12:22:00,39.0,38.0,-100.00,ESE,119,4.0,6.0,97,0.00,,,-99.99,,2013-02-26 17:22:00,
2013-02-26 12:32:00,41.0,40.0,-100.00,ESE,123,5.0,7.0,97,0.21,,,-99.99,,2013-02-26 17:32:00,
2013-02-26 12:42:00,41.0,40.0,-100.00,ESE,123,5.0,7.0,97,0.21,,,-99.99,,2013-02-26 17:42:00,
2013-02-26 12:52:00,41.0,40.0,-100.00,SE,136,3.0,6.0,97,0.35,,,-99.99,,2013-02-26 17:52:00,
2013-02-26 13:02:00,41.0,40.0,-100.00,SE,136,3.0,6.0,97,0.35,,,-99.99,,2013-02-26 18:02:00,
2013-02-26 13:12:00,42.0,41.0,-100.00,ESE,110,3.0,6.0,97,0.20,,,-99.99,,2013-02-26 18:12:00,
2013-02-26 13:21:00,42.0,41.0,-100.00,ESE,110,3.0,6.0,97,0.20,,,-99.99,,2013-02-26 18:21:00,
2013-02-26 13:32:00,43.0,42.0,-100.00,SE,126,4.0,6.0,97,0.13,,,-99.99,,2013-02-26 18:32:00,
2013-02-26 13:42:00,43.0,42.0,-100.00,SE,126,4.0,6.0,97,0.13,,,-99.99,,2013-02-26 18:42:00,
2013-02-26 13:53:00,44.0,43.0,-100.00,SE,133,6.0,10.0,97,0.16,,,-99.99,,2013-02-26 18:53:00,
2013-02-26 14:01:00,44.0,43.0,-100.00,SE,133,6.0,10.0,97,0.16,,,-99.99,,2013-02-26 19:01:00,
2013-02-26 14:11:00,44.0,44.0,-100.00,ESE,117,4.0,7.0,97,0.00,,,-99.99,,2013-02-26 19:11:00,
2013-02-26 14:22:00,44.0,44.0,-100.00,ESE,117,4.0,7.0,97,0.00,,,-99.99,,2013-02-26 19:22:00,
2013-02-26 14:32:00,45.0,44.0,-100.00,ESE,120,4.0,7.0,97,0.00,,,-99.99,,2013-02-26 19:32:00,
2013-02-26 14:42:00,45.0,44.0,-100.00,ESE,120,4.0,7.0,97,0.00,,,-99.99,,2013-02-26 19:42:00,
2013-02-26 14:52:00,46.0,45.0,-100.00,SSE,155,2.0,6.0,97,0.04,,,-99.99,,2013-02-26 19:52:00,
2013-02-26 15:01:00,46.0,45.0,-100.00,SSE,155,2.0,6.0,97,0.04,,,-99.99,,2013-02-26 20:01:00,
2013-02-26 15:11:00,47.0,46.0,-100.00,SE,143,6.0,11.0,97,0.13,,,-99.99,,2013-02-26 20:11:00,
2013-02-26 15:22:00,47.0,46.0,-100.00,SE,143,6.0,11.0,97,0.13,,,-99.99,,2013-02-26 20:22:00,
2013-02-26 15:32:00,48.0,47.0,-100.00,SE,141,4.0,8.0,97,0.13,,,-99.99,,2013-02-26 20:32:00,
2013-02-26 15:41:00,48.0,47.0,-100.00,SE,141,4.0,8.0,97,0.13,,,-99.99,,2013-02-26 20:41:00,
2013-02-26 15:52:00,48.0,48.0,-100.00,SE,136,5.0,13.0,97,0.13,,,-99.99,,2013-02-26 20:52:00,
2013-02-26 16:01:00,49.0,48.0,-100.00,SE,143,5.0,10.0,97,0.17,,,-99.99,,2013-02-26 21:01:00,
2013-02-26 16:11:00,49.0,48.0,-100.00,SE,143,5.0,10.0,97,0.17,,,-99.99,,2013-02-26 21:11:00,
2013-02-26 16:21:00,49.0,48.0,-100.00,SE,144,5.0,11.0,97,0.00,,,-99.99,,2013-02-26 21:21:00,
2013-02-26 16:31:00,49.0,48.0,-100.00,SE,144,5.0,11.0,97,0.00,,,-99.99,,2013-02-26 21:31:00,
2013-02-26 16:41:00,50.0,49.0,-100.00,SSE,148,6.0,13.0,97,0.00,,,-99.99,,2013-02-26 21:41:00,
2013-02-26 16:51:00,50.0,49.0,-100.00,SSE,148,6.0,13.0,97,0.00,,,-99.99,,2013-02-26 21:51:00,
2013-02-26 17:01:00,50.0,49.0,-100.00,SSE,148,6.0,13.0,97,0.00,,,-99.99,,2013-02-26 22:01:00,
2013-02-26 17:11:00,50.0,49.0,-100.00,SSE,147,5.0,9.0,97,0.07,,,-99.99,,2013-02-26 22:11:00,
2013-02-26 17:21:00,50.0,49.0,-100.00,SSE,147,5.0,9.0,97,0.07,,,-99.99,,2013-02-26 22:21:00,
2013-02-26 17:32:00,51.0,50.0,-100.00,ESE,121,2.0,5.0,97,0.03,,,-99.99,,2013-02-26 22:32:00,
2013-02-26 17:42:00,51.0,50.0,-100.00,ESE,121,2.0,5.0,97,0.03,,,-99.99,,2013-02-26 22:42:00,
2013-02-26 17:52:00,52.0,51.0,-100.00,South,178,4.0,8.0,97,0.00,,,-99.99,,2013-02-26 22:52:00,
2013-02-26 18:01:00,52.0,51.0,-100.00,South,178,4.0,8.0,97,0.00,,,-99.99,,2013-02-26 23:01:00,
2013-02-26 18:11:00,53.0,52.0,-100.00,East,93,2.0,3.0,97,0.00,,,-99.99,,2013-02-26 23:11:00,
2013-02-26 18:21:00,53.0,52.0,-100.00,East,93,2.0,3.0,97,0.00,,,-99.99,,2013-02-26 23:21:00,
2013-02-26 18:32:00,53.0,52.0,-100.00,West,260,4.0,6.0,97,0.13,,,-99.99,,2013-02-26 23:32:00,
2013-02-26 18:42:00,53.0,52.0,-100.00,West,260,4.0,6.0,97,0.13,,,-99.99,,2013-02-26 23:42:00,
2013-02-26 18:52:00,53.0,52.0,-100.00,SSE,164,2.0,4.0,97,0.00,,,-99.99,,2013-02-26 23:52:00,
2013-02-26 19:02:00,53.0,52.0,-100.00,SSE,164,2.0,4.0,97,0.00,,,-99.99,,2013-02-27 00:02:00,
2013-02-26 19:11:00,53.0,52.0,-100.00,SE,133,1.0,5.0,97,0.00,,,-99.99,,2013-02-27 00:11:00,
2013-02-26 19:22:00,53.0,52.0,-100.00,SSE,160,2.0,6.0,97,0.00,,,-99.99,,2013-02-27 00:22:00,
2013-02-26 19:32:00,53.0,52.0,-100.00,SSE,160,2.0,6.0,97,0.00,,,-99.99,,2013-02-27 00:32:00,
2013-02-26 19:42:00,53.0,52.0,-100.00,SSE,160,2.0,6.0,97,0.00,,,-99.99,,2013-02-27 00:42:00,
2013-02-26 19:52:00,52.0,51.0,-100.00,North,1,4.0,7.0,97,0.00,,,-99.99,,2013-02-27 00:52:00,
2013-02-26 20:01:00,52.0,51.0,-100.00,SE,140,2.0,3.0,97,0.00,,,-99.99,,2013-02-27 01:01:00,
2013-02-26 20:11:00,52.0,51.0,-100.00,SE,140,2.0,3.0,97,0.00,,,-99.99,,2013-02-27 01:11:00,
2013-02-26 20:22:00,52.0,51.0,-100.00,SE,140,2.0,3.0,97,0.00,,,-99.99,,2013-02-27 01:22:00,
2013-02-26 20:32:00,52.0,51.0,-100.00,NNW,330,0.0,1.0,97,0.00,,,-99.99,,2013-02-27 01:32:00,
2013-02-26 20:42:00,52.0,51.0,-100.00,NNW,330,0.0,1.0,97,0.00,,,-99.99,,2013-02-27 01:42:00,
2013-02-26 20:52:00,52.0,51.0,-100.00,WSW,240,2.0,2.0,97,0.00,,,-99.99,,2013-02-27 01:52:00,
2013-02-26 21:01:00,52.0,51.0,-100.00,West,265,1.0,2.0,97,0.00,,,-99.99,,2013-02-27 02:01:00,
2013-02-26 21:16:00,52.0,51.0,-100.00,West,265,1.0,2.0,97,0.00,,,-99.99,,2013-02-27 02:16:00,
2013-02-26 21:24:00,52.0,51.0,-100.00,NW,305,1.0,2.0,97,0.00,,,-99.99,,2013-02-27 02:24:00,
2013-02-26 21:32:00,52.0,51.0,-100.00,NW,305,1.0,2.0,97,0.00,,,-99.99,,2013-02-27 02:32:00,
2013-02-26 21:42:00,52.0,51.0,-100.00,NW,305,1.0,2.0,97,0.00,,,-99.99,,2013-02-27 02:42:00,
2013-02-26 21:52:00,51.0,50.0,-100.00,NE,56,1.0,3.0,97,0.00,,,-99.99,,2013-02-27 02:52:00,
2013-02-26 22:02:00,51.0,50.0,-100.00,NE,56,1.0,3.0,97,0.00,,,-99.99,,2013-02-27 03:02:00,
2013-02-26 22:11:00,52.0,51.0,-100.00,NW,304,1.0,3.0,97,0.00,,,-99.99,,2013-02-27 03:11:00,
2013-02-26 22:22:00,51.0,50.0,-100.00,North,357,4.0,7.0,97,0.00,,,-99.99,,2013-02-27 03:22:00,
2013-02-26 22:32:00,51.0,50.0,-100.00,North,357,4.0,7.0,97,0.00,,,-99.99,,2013-02-27 03:32:00,
2013-02-26 22:42:00,50.0,49.0,-100.00,NW,326,3.0,4.0,97,0.00,,,-99.99,,2013-02-27 03:42:00,
2013-02-26 22:52:00,50.0,49.0,-100.00,NW,326,3.0,4.0,97,0.00,,,-99.99,,2013-02-27 03:52:00,
2013-02-26 23:01:00,49.0,48.0,-100.00,NW,320,2.0,2.0,97,0.00,,,-99.99,,2013-02-27 04:01:00,
2013-02-26 23:12:00,49.0,48.0,-100.00,NW,320,2.0,2.0,97,0.00,,,-99.99,,2013-02-27 04:12:00,
2013-02-26 23:22:00,48.0,47.0,-100.00,WSW,243,1.0,2.0,97,0.00,,,-99.99,,2013-02-27 04:22:00,
2013-02-26 23:32:00,48.0,47.0,-100.00,WSW,243,1.0,2.0,97,0.00,,,-99.99,,2013-02-27 04:32:00,
2013-02-26 23:42:00,48.0,47.0,-100.00,WSW,243,1.0,2.0,97,0.00,,,-99.99,,2013-02-27 04:42:00,
2013-02-26 23:52:00,48.0,47.0,-100.00,WNW,298,2.0,4.0,97,0.00,,,-99.99,,2013-02-27 04:52:00,